User: anonymous   Login
Location: Caltech
(34.1382°N, 118.1253°W)
Time: 13:44:13
(UTC-07:00)
Language:

GPS 2-04 Rocket1 - Orbit

View from above orbital plane
View from above orbital plane
View from above satellite
View from above satellite

Ground track
Ground track

The orbit data is extracted from the following two-line orbital elements,

1 20303U 89085B   15185.14617606  .00006084  00000-0  24867-3 0  9997
2 20303 035.6303 161.4120 0122228 003.8219 054.9404 15.17171138391784
Epoch (UTC): 04 July 2015 03:30:29
Eccentricity: 0.0122228
inclination: 35.6303°
perigee height: 430 km
apogee height: 598 km
right ascension of ascending node: 161.4120°
argument of perigee: 3.8219°
revolutions per day: 15.17171138
mean anomaly at epoch: 54.9404°
orbit number at epoch: 39178

The dashed part of the orbit path shows where the satellite is in the earth's shadow,  

DLR